Regional Weather Roundup
Issued by NWS Cleveland, OH

Home | Current Version | Previous Version | Graphics & Text | Print | Product List | Glossary On
Versions: 1 2 3 4 5 6 7 8 9 10 11 12 13 14 15 16 17 18 19 20 21 22 23 24 25 26 27 28 29 30 31 32 33 34 35 36 37 38 39 40 41 42 43 44 45 46 47 48 49 50
000
ASUS41 KCLE 131410
RWRCLE
OHIO REGIONAL WEATHER ROUNDUP
NATIONAL WEATHER SERVICE WILMINGTON, OH
900 AM EST WED DEC 13 2017

NOTE: "FAIR" INDICATES FEW OR NO CLOUDS BELOW 12,000 FEET WITH NO
SIGNIFICANT WEATHER AND/OR OBSTRUCTIONS TO VISIBILITY.

OHZ001>008-015>018-024>027-034-035-043-044-131500-
   NORTHWEST OHIO

CITY           SKY/WX    TMP DP  RH WIND       PRES   REMARKS
DEFIANCE       CLOUDY    19  11  70 S9        29.79F WCI   8
FINDLAY        CLOUDY    20   9  62 S12       29.81F WCI   8
TOLEDO EXPRESS CLOUDY    18  12  77 S8        29.79F WCI   8
TOLEDO EXEC    CLOUDY    20  11  68 S10       29.81F WCI   9
LIMA           CLOUDY    19  11  70 S10       29.80F WCI   7
$$

OHZ009>014-019>023-028>033-038-089-131500-
   NORTHEAST OHIO

CITY           SKY/WX    TMP DP  RH WIND       PRES   REMARKS
CLE-HOPKINS    CLOUDY    19  10  68 SW10      29.85F WCI   7
CLE-LAKEFRONT  FLURRIES  19  10  68 SW14      29.83F WCI   6
CUY CO. ARPT   SNOWSHWR  18  14  86 SW14      29.82S VSB 3/4 WCI   4
LORAIN-ELYRIA  PTSUNNY   18   8  65 SW10      29.83F WCI   6
ASHTABULA      LGT SNOW  17  12  80 W5        29.80R WCI  10
AKRON-CANTON   CLOUDY    17   8  67 SW9       29.81F WCI   6
WOOSTER        FAIR      17  12  80 SW9       29.83F WCI   6
MANSFIELD      CLOUDY    18  11  74 SW9       29.81F WCI   7
YOUNGSTOWN     LGT SNOW  15  11  83 SW10      29.79F VSB 1   WCI   2
$$

OHZ042-051>053-060>062-070>072-077>081-131500-
  SOUTHWEST OHIO

CITY           SKY/WX    TMP DP  RH WIND       PRES   REMARKS
CINC-COVINGTON PTSUNNY   22  12  65 S12       29.88F WCI  10
CINC-LUNKEN    PTSUNNY   22  12  65 S7        29.93F WCI  13
HAMILTON       CLOUDY    24  11  57 S9        29.90F WCI  14
DAYTON         CLOUDY    19  10  68 S10       29.84F WCI   7
WRIGHT-PAT AFB CLOUDY    21   7  55 S9        29.86F WCI  10
DAYTON GENERAL CLOUDY    20  10  65 S10       29.85F WCI   9
WILMINGTON     CLOUDY    20  11  68 S9        29.86F WCI   9
$$

OHZ036-037-039>041-045>050-054>059-063>069-073>076-082>088-131500-
  CENTRAL AND SOUTHEAST OHIO

CITY           SKY/WX    TMP DP  RH WIND       PRES   REMARKS
COLUMBUS       CLOUDY    19  12  74 S8        29.88F WCI   9
OSU AIRPORT    CLOUDY    18  11  74 S9        29.87F WCI   7
BOLTON FIELD   CLOUDY    18  12  79 SW6       29.88F WCI   9
RICKENBACK AFB CLOUDY    18  12  79 S8        29.90F WCI   8
NEWARK         CLOUDY    19  10  68 SW10      29.88F WCI   7
MARION         CLOUDY    18  10  71 S12       29.85  WCI   5
LANCASTER      CLOUDY    18  10  71 SW8       29.90F WCI   8
ZANESVILLE     PTSUNNY   19   9  65 SW9       29.89F WCI   8
NEW PHILLY     CLOUDY    19  12  74 SW7       29.86F WCI  10
$$



USA.gov is the U.S. government's official web portal to all federal, state and local government web resources and services.